Regional Weather Roundup
Issued by NWS

Home | Current Version | Previous Version | Graphics & Text | Print | Product List | Glossary On
Versions: 1 2 3 4 5 6 7 8 9 10 11 12 13 14 15 16 17 18 19 20 21 22 23 24 25 26 27 28 29 30
000
ASUS45 KBOU 301807
RWRCO

WEATHER ROUNDUP FOR COLORADO
NATIONAL WEATHER SERVICE DENVER/BOULDER CO
1200 PM MDT THU OCT 30 2014

NOTE: "FAIR" INDICATES FEW OR NO CLOUDS BELOW 12000 FEET WITH NO
SIGNIFICANT WEATHER AND/OR OBSTRUCTIONS TO VISIBILITY.

COZ001>005-013-030-031-301900-
...NORTHWEST COLORADO...

CITY           SKY/WX    TMP DP  RH WIND       PRES   REMARKS
CRAIG          SUNNY     59  30  33 VRB3      30.39F
HAYDEN         SUNNY     54  28  37 CALM      30.40F
MEEKER         SUNNY     55  27  34 CALM      30.39F
MOUNT WERNER   NOT AVBL
STEAMBOAT SPGS SUNNY     50  29  45 CALM      30.41F
WALDEN         SUNNY     50  21  32 SW5       30.43S
$$

COZ006>008-011-301900-
...WEST CENTRAL VALLEYS...

CITY           SKY/WX    TMP DP  RH WIND       PRES   REMARKS
GRAND JUNCTION SUNNY     57  22  25 VRB6      30.35F
MONTROSE       SUNNY     57  19  22 N5        30.39F
EAGLE          SUNNY     46  19  34 CALM      30.45F
RIFLE          SUNNY     53  21  28 CALM      30.38F
DELTA          SUNNY     57  20  23 CALM      30.37F
NUCLA          SUNNY     54  19  26 NW5       30.39F
$$

COZ017>023-064>068-301900-
...SOUTHWEST COLORADO...

CITY           SKY/WX    TMP DP  RH WIND       PRES   REMARKS
DURANGO        SUNNY     57  24  28 E6        30.37F
CORTEZ         SUNNY     60  19  20 SW7       30.34F
PAGOSA SPRINGS SUNNY     57  18  21 CALM      30.42S
TELLURIDE      SUNNY     58  22  24 W6        30.48F
WOLF CREEK PAS SUNNY     45  18  33 CALM      30.61S
$$

COZ009-010-012-014-032>034-037-058>063-301900-
...CENTRAL COLORADO...

CITY           SKY/WX    TMP DP  RH WIND       PRES   REMARKS
ASPEN          SUNNY     54  18  24 CALM      30.43F
BUENA VISTA    SUNNY     55  16  22 SE8       30.42F
COPPER MTN     SUNNY     37  16  41 W18G25    30.58S
BERTHOUD PASS  FAIR      30  27  86 NW21G37   30.56S WCI  17
COTTONWOOD PAS SUNNY     52  14  22 SE7       30.50R
GUNNISON       SUNNY     46  16  29 NE3       30.48F
KREMMLING      SUNNY     50  21  32 CALM        N/A
LEADVILLE      SUNNY     48  17  29 NW10G17   30.48F
MONARCH PASS   SUNNY     36  18  48 W10G17    30.69S
SALIDA         SUNNY     56  17  21 SE6       30.49F
SUNLIGHT       SUNNY     43  21  42 CALM      30.57S
WILKERSON PASS NOT AVBL
$$

COZ069>075-301900-
...SAN LUIS VALLEY/SANGRE DE CRISTO MOUNTAINS...

CITY           SKY/WX    TMP DP  RH WIND       PRES   REMARKS
ALAMOSA        SUNNY     56  13  18 VRB3      30.42F
LA VETA PASS   SUNNY     45  19  36 N3        30.52S
SAGUACHE       SUNNY     57  19  23 S9        30.42F
$$

COZ035-036-038>040-301900-
...NORTHERN COLORADO FRONT RANGE...

CITY           SKY/WX    TMP DP  RH WIND       PRES   REMARKS
DENVER INTL AP MOSUNNY   56  25  30 MISG      30.37F
DMNS CITY PARK   N/A     58  25  28 S10       30.37F
AURORA         MOSUNNY   56  25  30 SE6       30.38F
FRONT RANGE AP NOT AVBL
ERIE MUNI ARPT SUNNY     58  24  27 E7        30.36F
BOULDER MUN AP SUNNY     59  27  29 SE5       30.35F
CENTENNIAL     MOSUNNY   54  26  34 SE8       30.38F
BROOMFIELD     MOSUNNY   57  27  30 SE8       30.38F
FORT COLLINS   SUNNY     57  28  33 SE7       30.38F
LONGMONT       SUNNY     62  27  26 SE10      30.38F
$$

COZ041-046-047-076>085-087-088-301900-
...PIKES PEAK/PALMER DIVIDE AND SOUTHERN FOOTHILLS...

CITY           SKY/WX    TMP DP  RH WIND       PRES   REMARKS
COLO. SPRINGS  SUNNY     56  23  27 CALM      30.41F
A. F. ACADEMY  SUNNY     55  22  28 S7        30.40F
ELLICOTT       SUNNY     55  23  28 CALM      30.40F
FALCON         SUNNY     55  23  28 S9        30.43F
FORT CARSON    SUNNY     57  24  28 VRB5      30.40F
LIMON          SUNNY     57  24  28 N8        30.38F
MONUMENT HILL  SUNNY     50  23  34 CALM      30.41F
TRINIDAD       SUNNY     59  22  24 VRB5      30.39F
$$

COZ042>045-048>051-090-091-301900-
...NORTHEAST COLORADO...

CITY           SKY/WX    TMP DP  RH WIND       PRES   REMARKS
GREELEY ARPT   SUNNY     59  28  31 CALM      30.37F
AKRON          SUNNY     57  28  33 NW10      30.36F
BURLINGTON     SUNNY     61  26  26 N12       30.35S
WRAY           SUNNY     65  28  24 NW13G18   30.32F
STERLING       SUNNY     64  32  29 N8        30.34S
HOLYOKE        SUNNY     64  30  27 N15       30.32S
FORT MORGAN    SUNNY     58  25  27 N3        30.37F
$$

COZ086-089-092>099-301900-
...SOUTHEAST COLORADO...

CITY           SKY/WX    TMP DP  RH WIND       PRES   REMARKS
PUEBLO         SUNNY     63  23  21 VRB3      30.37F
LA JUNTA       SUNNY     62  26  25 CALM      30.37S
LAMAR          SUNNY     64  28  25 W8        30.33F
SPRINGFIELD      N/A     63  25  23 N13       30.34F
$$



USA.gov is the U.S. government's official web portal to all federal, state and local government web resources and services.